HELIOS 1B

Last updated on Sun Jun 21 2026 00:02:15 GMT+0000 (Coordinated Universal Time)

1 25977U 99064A 26171.33913985 .00001002 00000+0 11549-3 0 9991 2 25977 98.1612 76.5701 0002549 86.8565 273.2943 14.88013500700527
UTC large
Height (km)
Speed (km/s)
/
Latitude / Longitude
Inclination (degrees)
Orbital Period (minutes)
Azimuth
Elevation
Range (km)
Doppler Factor

Next 0 passes for location: London (51.5072 / 0.1276)

No passes found over London.
HELIOS 1B